Location: Aiyekoto
(8.4333°N, 4.3667°E)
Time: 13:00:27
(UTC+00:00)

Vanguard 1 - Visible Passes

Search period start: 26 September 2020 00:00
Search period end: 06 October 2020 00:00
Orbit: 650 x 3832 km, 34.2° (Epoch: 26 September)

Date Brightness Start Highest point End Pass type
(mag) Time Alt. Az. Time Alt. Az. Time Alt. Az.
26 Sep 12.3 02:34:22 17° NE 02:34:24 17° NE 02:39:22 10° ENE visible
26 Sep 11.2 04:47:47 10° NW 04:55:13 85° NE 05:09:38 10° SE visible
26 Sep 11.2 19:37:51 10° WSW 19:47:28 41° NW 19:49:19 35° N visible
27 Sep 11.8 02:54:32 25° NNE 02:55:19 26° NE 03:02:37 10° E visible
27 Sep 11.3 05:08:38 10° WNW 05:16:20 71° SW 05:31:08 10° SE visible
27 Sep 11.8 20:00:29 10° W 20:08:15 27° NW 20:09:25 26° NNW visible
28 Sep 11.2 03:14:42 36° NNE 03:16:06 40° NE 03:25:15 10° ESE visible
28 Sep 11.3 17:53:15 10° SW 18:08:14 85° NW 18:15:57 10° NE visible
28 Sep 12.3 20:23:44 10° WNW 20:29:11 18° NW 20:29:28 18° NNW visible
29 Sep 10.7 03:34:53 45° NNW 03:36:52 61° NE 03:47:21 10° ESE visible
29 Sep 11.5 18:15:09 10° WSW 18:29:11 62° NW 18:36:35 10° NE visible
29 Sep 12.8 20:48:14 10° NW 20:49:30 11° NW 20:49:30 11° NW visible
30 Sep 10.5 03:55:04 42° NW 03:57:44 90° SSW 04:09:01 10° SE visible
30 Sep 11.9 18:37:30 10° WSW 18:50:02 44° NW 18:56:45 11° NNE visible
01 Oct 12.7 02:02:30 13° E 02:02:30 13° E 02:03:36 10° E visible
01 Oct 10.7 04:15:14 30° WNW 04:18:48 62° SSW 04:30:18 10° SE visible
01 Oct 12.2 19:00:21 10° W 19:10:55 31° NW 19:16:43 13° NNE visible
02 Oct 12.2 02:22:40 22° E 02:22:40 22° E 02:26:00 10° ESE visible
02 Oct 11.3 04:35:24 19° W 04:40:05 42° SSW 04:51:13 10° SE visible
02 Oct 12.3 19:23:44 10° W 19:31:54 22° NW 19:36:39 13° N visible
03 Oct 11.6 02:42:49 34° ESE 02:42:49 34° ESE 02:47:53 10° ESE visible
03 Oct 11.8 04:55:33 11° W 05:01:37 29° SSW 05:11:46 10° SSE visible
03 Oct 12.5 19:47:45 10° WNW 19:53:06 15° NNW 19:56:32 12° N visible
04 Oct 11.0 03:02:56 46° SE 03:02:56 46° SE 03:09:19 10° SE visible
04 Oct 12.4 17:36:21 10° WSW 17:52:06 48° NW 18:00:46 10° NE visible
04 Oct 12.7 20:13:19 10° NW 20:14:33 10° NNW 20:15:42 10° NNW visible
05 Oct 10.8 03:23:02 45° S 03:23:02 45° S 03:30:20 10° SE visible
05 Oct 12.5 17:59:22 10° W 18:13:06 36° NW 18:21:09 10° NNE visible
